FENGYUN 1C DEB, 30804

Orbit data source: Space-Track

FENGYUN 1C DEB, 30804 is space debris in SSO originally from a launch on Mon, 10 May 1999 UTC launched from the Taiyaun Space Center, China (TSC). Fengyun 1C debris stems from the Chinese weather satellite Fengyun-1C, which was intentionally destroyed by a Chinese anti-satellite missile in 2007. This event dramatically increased the amount of space debris, with thousands of trackable fragments posing hazards to satellites and human spaceflight. The Fengyun 1C debris cloud has become a focal point in discussions about space sustainability and the need for international regulations to prevent the creation of new debris.

Loading next visibility...
Identifier
30804, 1999-025AUN
Orbit
SSO
Country
Flag of CNCN / PRC
Related business
Manufacturer
Unknown
Mission
Spacecraft
Bus & Motor
Unknown
Mass
Unknown
Launch date (UTC)
1999-05-10 (27 years ago)
Launch vehicle
Unknown
Launch site
Taiyaun Space Center, China (TSC)
Object type
Payload
Rocket body
Debris
Shape & HBR
Unknown shape, 0.1 m
Radar Cross Section
Medium (>0.1 m² and <1 m²)

Expand to show TLE details & history
Last TLE update: 2 days ago

TLE from 2 days ago
0 FENGYUN 1C DEB
1 30804U 99025AUN 26235.20519918  .00001843  00000-0  34775-3 0  9998
2 30804  98.8730 321.5817 0184001 140.9463 250.2488 14.55529845 31584
Epoch: 2026-08-23T04:55Z
TLE epoch observation values (Epoch: 2026-08-23T04:55:29.209Z)
Latitude
28.89099°
Longitude
-88.71018°
Altitude
757.425 km
Speed
7.454 km/s
True Right ascension
21h 06m 39s
True Declination
28° 44' 45"
Sunlit
Object was in full shadow at epoch
Visualization orbit readout
Latitude
Unknown
Longitude
Unknown
Altitude
Unknown
Speed
Unknown
Apparent Right ascension
Unknown
Apparent Declination
Unknown
Sunlit
N/A
Visualization observer readout
Local Sidereal Time
09:57:11
Azimuth
Unknown
Elevation
Unknown
Doppler factor
Unknown
Orbital elements
Apogee altitude
835.089 km
Perigee altitude
574.436 km
Semi-major axis
7,082.899 km
Eccentricity
0.0184
Inclination
98.873°
RAAN
321.5817°
Arg. of periapsis
140.9463°
True anomaly
248.28005°
Mean anomaly
250.2488°
Eccentric anomaly
249.26285°
Mean motion
3.64105 °/min
Orbital period
98.87 mins
BSTAR
0.00034775
Loading maneuver chart data...
Computing Atmospheric mass density...

Documentation

Showing up to 5 results
|